Theta_e
331 331 332 332 332 331 332 333 332 330 329 327 328 328 327 325 322 321 322 323 323 323 322 323 323 324 325 326 327 327 327 325 323 323 324 326 326 326 326 327 327 327 328 328 327 327 327 327 328 327 327 328 328 328 328 328 327 327 327 327 327 327 328 328 329 329 329 328 328 326 326 328 329 329 330 331 332 332 331 331 331 331 332 332 331
331 331 331 332 332 332 333 333 331 329 328 327 328 327 325 321 319 322 325 323 323 323 320 321 324 325 324 326 327 327 327 325 323 324 326 326 326 326 326 327 328 328 329 328 328 327 327 327 327 327 327 327 327 327 327 327 327 327 327 327 327 327 328 328 329 329 329 328 329 330 330 330 328 328 330 330 330 330 330 330 330 331 331 331 331
332 331 330 331 332 333 334 333 331 330 329 328 328 326 324 322 321 323 324 323 323 322 319 318 321 324 324 325 325 325 326 325 324 325 326 326 326 326 326 327 328 328 329 328 328 328 328 328 327 327 326 326 327 327 327 327 327 327 327 327 327 327 328 328 329 328 329 328 329 333 334 335 335 329 329 330 329 329 330 330 330 331 330 330 330
332 332 330 330 332 333 334 332 332 330 328 329 329 326 325 325 323 322 323 324 323 321 321 321 322 323 324 325 325 325 324 325 325 325 326 326 326 327 327 327 327 327 328 328 327 328 328 328 328 327 326 326 326 326 326 326 326 327 327 327 327 327 327 328 329 328 328 329 330 332 330 335 342 334 328 329 329 328 329 329 329 329 330 329 329
332 332 330 329 331 332 333 332 332 330 328 329 329 326 326 325 323 323 324 324 322 319 322 325 326 326 325 325 325 325 323 324 326 325 326 326 326 327 326 326 327 327 327 327 327 327 327 327 327 327 327 327 326 326 326 326 326 326 326 326 326 326 327 327 328 329 328 329 330 331 331 335 340 333 328 328 328 329 328 329 330 329 329 329 329
331 331 330 329 330 331 332 332 332 331 329 329 329 327 327 324 323 325 325 325 322 319 322 323 325 327 327 326 326 324 322 323 325 325 325 326 326 327 326 326 326 326 326 326 326 327 326 326 326 326 326 326 326 326 326 326 326 326 326 326 326 326 327 327 328 328 328 329 328 329 331 334 333 331 332 330 327 328 329 330 330 330 330 330 329
332 331 330 329 330 331 331 331 332 331 329 329 329 329 327 324 324 324 324 326 323 320 322 323 324 325 325 327 327 324 320 322 324 325 325 325 326 327 326 325 326 325 326 325 326 326 326 326 325 325 325 325 325 325 325 326 326 326 327 326 327 327 327 327 328 328 328 329 329 329 329 329 329 330 334 332 329 328 329 330 330 330 330 330 329
333 332 331 329 329 330 330 331 332 332 330 329 329 329 327 324 325 324 323 325 323 320 323 325 325 325 324 325 325 323 321 322 324 324 324 325 326 326 326 325 325 325 326 325 325 326 326 326 324 324 325 325 325 325 325 326 326 326 327 327 327 328 327 327 327 328 328 328 329 329 329 329 328 328 330 331 331 330 328 328 328 329 330 329 329
332 332 331 329 329 330 330 331 331 331 330 329 329 329 326 325 325 324 323 325 323 322 325 326 324 324 324 323 322 322 322 323 324 325 325 325 325 326 325 325 324 324 324 324 324 325 325 325 324 324 325 325 325 325 325 325 326 326 327 327 327 327 327 327 327 327 327 328 328 328 328 328 328 328 328 328 329 330 329 327 326 327 328 328 328
331 331 329 329 330 330 330 330 330 330 329 328 329 328 325 325 325 323 323 325 325 323 324 324 324 325 324 322 321 321 323 324 324 325 325 325 325 325 325 324 323 323 322 322 322 324 324 324 324 324 324 324 324 324 324 324 325 326 326 326 326 327 326 326 326 327 326 326 327 327 327 327 327 327 327 327 327 328 328 326 325 325 326 326 326
330 329 328 328 329 330 329 329 330 329 329 328 329 328 325 326 324 322 324 326 325 323 322 323 324 325 325 323 321 320 322 324 324 325 325 325 324 324 324 323 323 322 321 321 321 322 323 323 324 324 323 323 323 323 323 323 323 324 324 324 324 325 325 325 326 326 326 325 325 326 326 326 326 326 326 326 327 327 327 325 324 325 325 324 323
331 330 329 327 327 328 328 328 329 329 329 329 329 327 326 326 323 322 325 326 324 323 322 323 324 325 324 322 321 319 321 323 324 324 324 324 324 323 323 323 322 321 320 320 320 322 322 323 323 324 323 323 323 322 322 322 322 322 322 322 323 323 324 324 324 325 325 324 324 325 325 325 325 326 326 326 326 326 325 324 324 324 324 322 321
330 330 330 328 326 326 327 327 328 329 329 329 328 327 326 325 323 322 324 325 324 322 322 324 324 324 323 321 322 320 320 323 323 324 323 323 323 323 322 322 320 320 320 319 320 321 322 322 323 323 323 323 322 322 321 321 321 321 321 321 321 322 322 322 322 323 324 324 324 323 323 324 324 325 325 325 326 325 325 324 324 324 324 324 322
330 330 330 328 326 326 326 327 327 328 330 329 328 327 326 325 323 322 324 325 324 322 322 324 324 323 322 321 322 320 320 323 323 323 323 322 322 322 321 321 320 319 319 319 320 321 321 322 323 323 322 322 321 321 321 320 320 320 320 320 320 320 321 321 320 322 323 322 322 323 322 322 322 323 323 323 324 325 325 324 324 324 323 323 321
330 330 329 327 326 327 326 327 327 328 329 329 327 327 326 325 323 322 324 324 324 322 322 324 323 322 322 322 321 320 320 323 323 322 322 322 321 320 319 319 318 318 319 319 320 321 321 322 323 323 322 322 321 321 321 319 319 319 319 319 319 319 319 319 319 320 320 319 320 322 322 320 320 320 320 321 322 324 325 324 323 323 323 321 319
330 330 330 327 326 327 327 326 327 328 329 328 327 327 326 325 323 322 324 324 324 323 322 324 324 322 323 322 321 320 321 322 322 321 321 320 320 319 318 317 315 317 319 319 319 320 321 322 323 323 322 321 320 320 320 319 318 318 318 318 318 318 317 317 317 318 318 318 319 320 319 318 317 317 318 319 321 323 325 324 323 322 321 320 318
329 329 329 327 326 326 326 327 327 328 329 328 327 327 327 326 324 323 324 324 324 323 323 324 324 323 323 322 320 321 322 322 321 321 319 319 318 318 317 316 314 316 318 319 320 320 320 321 322 322 321 321 319 319 318 318 317 316 316 315 316 317 316 315 315 316 316 317 317 317 317 316 316 316 317 320 321 323 324 324 324 322 320 320 320
328 328 327 325 326 326 326 327 328 329 329 329 328 327 327 326 324 323 324 324 324 323 323 323 324 323 322 321 320 321 322 321 321 320 319 318 318 317 316 315 314 315 316 318 319 320 320 321 321 320 320 320 319 318 317 316 316 315 314 314 315 315 315 315 314 314 315 316 316 316 315 315 315 314 315 318 320 321 322 323 323 322 321 320 318
328 328 327 326 325 325 326 327 328 329 329 330 329 327 327 326 324 323 324 324 323 323 323 323 323 323 322 320 318 320 321 322 321 319 318 317 317 316 315 315 314 314 316 318 319 319 319 320 320 319 318 318 318 317 317 316 314 314 313 313 313 314 314 314 314 313 314 315 315 315 314 313 313 313 314 315 316 317 319 320 322 323 322 318 313
328 328 328 326 325 325 326 327 328 330 330 330 329 328 327 326 324 324 324 324 323 323 323 323 322 322 321 319 318 319 321 322 321 319 317 317 316 316 315 315 314 314 316 317 318 319 319 319 319 318 317 317 316 314 315 315 314 313 313 313 313 313 314 314 314 313 314 314 314 313 312 312 311 311 311 312 312 314 316 318 321 322 320 315 310
328 328 327 326 325 325 326 327 328 329 330 330 329 328 327 326 325 324 324 324 323 323 323 323 322 322 320 319 320 320 321 321 320 318 317 316 315 315 315 314 313 314 316 316 316 317 318 318 318 317 315 315 314 312 312 313 313 312 312 313 313 313 313 313 313 313 313 313 313 312 310 310 310 310 309 309 309 310 313 316 319 319 314 310 308
328 327 327 326 325 326 326 327 328 329 330 330 329 328 326 326 325 324 324 324 322 323 323 323 323 321 319 319 321 321 321 321 319 317 316 316 315 315 314 314 313 313 315 316 315 316 317 317 316 316 315 314 313 311 311 311 312 312 312 312 312 313 313 313 313 313 312 312 312 311 309 309 309 308 307 307 307 309 313 315 315 314 309 307 307
327 326 326 324 325 326 326 327 328 329 330 330 329 328 326 326 326 325 324 324 322 322 323 323 323 322 320 319 320 320 320 320 318 316 316 315 315 314 314 314 313 313 315 315 314 315 316 315 315 314 313 312 312 311 311 311 311 311 311 310 310 311 312 313 313 312 311 311 311 310 309 308 308 308 307 306 306 307 311 312 311 309 306 305 305
328 327 325 323 324 326 327 328 329 329 330 330 329 328 327 326 326 325 325 324 322 322 323 323 322 321 320 319 319 320 320 319 317 316 315 315 314 314 314 314 313 313 315 315 314 315 315 314 313 312 310 309 310 311 311 310 310 310 309 309 309 308 307 309 311 311 311 310 310 310 309 308 307 307 306 306 305 305 308 309 308 307 306 304 304
329 330 329 327 327 327 328 329 329 329 330 330 329 328 327 326 325 325 325 323 322 322 323 323 322 321 320 319 319 320 319 318 316 316 315 315 314 313 313 314 312 312 314 314 314 314 314 312 311 310 309 308 308 310 310 310 309 309 308 308 305 302 301 303 306 309 310 310 309 308 308 308 307 306 306 305 305 304 305 305 305 304 304 303 303
333 332 332 331 329 328 328 329 329 329 329 329 329 328 326 326 325 325 325 323 323 323 322 322 321 320 319 319 319 319 319 317 316 316 315 315 314 313 313 314 312 312 313 313 313 312 312 311 310 309 309 308 308 309 310 310 308 308 307 305 300 297 297 300 303 306 308 309 309 308 308 308 307 306 305 305 305 304 303 303 303 302 302 302 302
333 331 330 330 331 329 328 329 329 329 329 329 329 328 326 326 325 325 325 323 323 323 322 322 321 320 319 318 317 318 319 318 317 316 315 315 315 314 313 313 312 311 313 313 312 311 310 309 309 309 309 309 309 308 309 309 307 307 306 300 294 293 295 296 298 301 303 305 306 306 306 306 307 306 304 303 304 304 303 303 302 302 302 301 300
334 333 332 331 332 330 327 328 329 329 329 329 329 328 327 326 325 325 324 324 323 322 322 322 321 320 319 318 317 318 319 318 317 316 315 314 314 314 313 313 311 311 313 313 312 310 309 309 309 308 308 309 309 309 309 308 307 307 304 297 292 293 293 292 293 295 296 298 300 302 303 304 305 305 304 303 303 303 303 302 301 301 301 301 300
331 333 334 332 332 331 327 326 328 328 328 328 328 327 327 326 325 325 323 323 323 322 322 322 321 320 320 318 317 318 319 318 317 316 315 314 314 314 314 312 311 310 312 312 310 309 309 308 308 308 308 308 309 309 309 308 307 306 301 294 292 292 292 292 292 292 292 293 294 296 299 302 303 304 303 302 301 302 302 302 301 301 301 300 300
326 330 334 332 331 328 325 325 328 327 327 328 327 327 327 326 325 324 323 323 322 322 322 322 322 321 320 319 318 318 319 318 317 316 315 315 314 314 313 311 310 311 313 312 310 309 309 309 308 308 308 308 308 308 309 308 307 306 300 294 292 292 292 292 293 294 295 295 294 293 293 296 299 301 302 302 302 301 301 301 300 301 301 301 300
331 335 339 337 332 327 323 325 327 327 327 328 327 327 327 326 325 324 322 322 322 322 322 321 322 321 320 320 318 318 318 318 317 316 315 315 314 314 313 310 309 312 313 311 310 310 309 309 308 308 308 308 309 308 308 307 306 305 301 295 292 292 292 293 296 298 299 300 299 296 293 291 293 295 297 299 300 300 300 300 299 299 299 298 298
336 339 341 341 337 329 324 324 326 326 327 327 327 328 326 326 326 324 322 322 322 322 322 321 322 321 321 321 319 318 318 318 317 316 316 316 314 313 312 310 309 311 312 312 311 310 309 308 308 308 306 307 308 308 308 307 305 305 303 299 295 295 294 293 296 300 301 301 302 300 295 291 290 291 292 293 294 295 295 296 295 295 294 293 293
334 339 341 339 335 329 325 325 326 326 327 327 327 327 327 327 326 324 322 321 321 322 321 321 322 321 321 321 319 318 318 318 318 316 316 316 314 313 312 310 309 311 312 312 310 310 309 308 309 308 304 304 308 308 307 307 305 304 304 303 302 301 300 298 298 299 301 301 302 302 299 294 291 290 291 291 291 291 291 291 291 291 290 290 290
333 339 341 334 328 327 327 327 326 325 327 327 327 327 327 327 326 324 322 320 321 322 321 321 321 321 321 321 319 318 318 318 318 317 316 316 314 313 313 310 309 310 312 311 310 309 309 308 309 307 301 303 307 307 306 307 305 305 305 304 304 304 303 302 300 299 301 302 302 302 301 296 292 290 290 291 290 290 290 290 290 289 289 289 289
335 339 337 329 325 327 329 328 327 326 326 325 325 326 326 326 325 324 322 321 320 321 321 321 321 321 321 320 320 319 318 318 318 317 317 316 314 313 312 310 309 309 311 311 310 309 309 308 310 307 301 302 307 306 306 306 305 305 305 304 304 304 302 301 300 299 300 302 302 302 301 298 295 293 292 292 292 292 292 292 292 292 291 291 290
331 331 329 325 325 326 327 328 329 328 326 325 325 325 325 324 324 324 323 321 321 321 321 321 321 321 320 320 320 319 318 318 318 317 316 316 314 313 312 311 309 308 310 311 310 310 309 308 310 307 300 301 306 305 305 306 305 304 304 303 304 304 302 301 299 299 300 302 302 301 300 299 298 296 296 296 296 295 294 294 295 295 295 294 294
324 324 324 325 326 325 325 327 328 329 328 327 325 325 324 324 323 323 322 321 321 321 321 321 321 321 321 320 320 319 318 318 318 317 316 316 314 314 312 311 309 308 309 311 310 310 310 309 310 308 300 299 304 306 304 305 305 303 303 303 303 303 302 301 301 300 301 301 301 300 300 299 299 298 298 298 298 298 296 296 296 297 297 296 296
321 323 325 325 326 326 325 325 327 328 329 328 326 325 324 324 323 323 323 321 321 321 321 321 322 321 321 320 320 319 319 318 318 317 317 316 315 314 313 311 310 309 309 310 310 310 310 309 310 309 302 297 300 305 304 304 304 303 303 303 303 302 302 301 300 300 300 299 299 297 298 299 299 299 300 299 298 298 298 297 296 296 297 297 297
320 321 322 323 325 326 326 325 326 327 328 328 327 325 324 323 323 323 323 322 321 321 321 322 322 321 321 321 320 320 319 318 318 318 317 317 316 314 314 312 310 309 308 308 310 311 310 309 309 310 306 298 296 302 304 303 303 304 303 302 302 301 301 301 301 300 299 299 298 296 297 299 299 299 300 300 299 299 299 298 296 296 297 297 297
320 320 320 320 322 325 326 325 326 327 327 327 327 326 324 324 323 322 323 323 322 322 321 322 322 321 321 321 320 320 319 319 318 318 317 317 316 315 314 312 310 309 308 308 310 311 310 310 309 309 309 303 296 298 303 303 303 303 302 301 300 300 300 300 301 300 299 299 297 295 296 298 298 298 299 300 299 299 299 298 296 295 296 297 297
320 320 320 320 320 321 323 323 324 326 326 326 327 327 325 324 323 322 323 323 322 322 322 322 322 322 321 321 320 320 320 319 319 318 318 317 316 315 314 313 311 309 307 307 309 311 310 310 309 308 309 308 300 295 299 303 303 302 302 301 301 300 300 300 300 300 299 299 298 296 294 295 297 298 298 300 299 299 299 298 296 295 295 295 295
320 320 320 320 320 320 320 321 322 325 326 325 325 326 326 325 324 323 323 323 322 323 322 322 322 322 321 321 321 320 319 319 318 318 317 317 316 315 314 313 311 309 308 307 308 310 310 310 310 309 309 309 305 297 296 300 302 302 302 303 302 301 301 300 300 300 299 298 298 297 294 293 294 296 297 298 298 299 299 298 297 296 295 294 295
320 320 319 320 320 320 320 320 319 322 325 325 324 325 325 325 324 325 324 323 322 323 323 322 322 322 321 322 322 321 319 318 318 318 317 316 315 314 313 313 311 309 307 307 307 309 310 310 310 309 308 309 309 303 296 296 300 302 302 303 303 302 301 301 301 300 298 297 297 297 295 292 291 293 294 293 294 295 296 297 297 296 294 294 295
319 318 320 320 319 319 320 320 320 320 322 325 325 325 324 324 325 325 324 323 322 323 323 323 322 322 322 322 322 321 319 318 318 317 316 316 315 314 313 312 311 309 307 307 307 308 310 310 310 310 309 309 309 307 300 294 295 299 302 303 304 303 302 301 301 300 299 298 296 296 295 292 291 291 291 291 291 291 292 293 294 294 294 295 296
318 318 320 319 318 319 319 319 320 319 320 323 325 325 324 324 323 324 324 323 323 323 323 323 323 323 322 322 322 321 319 318 317 316 316 315 314 313 312 310 310 308 307 306 307 308 309 310 309 309 309 309 309 309 305 298 293 295 300 303 304 303 303 302 301 301 300 299 298 296 293 292 291 291 291 290 290 290 290 291 292 293 295 295 295
317 318 318 317 317 318 318 318 319 319 319 320 322 324 325 323 322 322 324 323 323 323 323 323 323 323 323 322 322 321 320 319 317 316 316 315 314 313 312 310 309 308 307 306 306 307 308 309 309 309 309 309 308 308 308 304 297 294 297 301 303 303 303 302 301 301 300 299 298 296 294 292 291 290 291 291 290 290 290 290 292 294 295 295 295
317 316 316 316 317 318 318 317 317 318 319 319 320 322 323 323 321 321 322 323 324 323 323 323 322 322 322 322 321 321 321 319 318 316 315 315 314 313 312 310 308 307 306 306 306 306 307 307 308 308 308 308 308 308 308 308 304 297 295 297 300 302 303 302 301 302 301 300 298 296 294 293 291 290 290 290 290 290 290 290 291 294 295 294 295
316 316 316 317 317 317 318 318 317 318 318 318 319 320 321 322 322 321 321 322 323 323 324 323 323 322 322 321 321 321 320 318 317 316 315 315 314 313 312 311 310 309 307 306 305 305 306 307 307 307 307 307 308 308 307 308 307 303 297 294 295 299 302 302 302 301 301 301 299 296 295 293 291 290 290 290 290 290 290 290 291 294 295 294 295
315 316 316 317 317 316 317 317 318 318 317 317 318 318 319 320 321 321 321 321 321 323 324 324 323 322 321 321 321 321 320 319 317 316 316 315 315 314 313 312 312 312 311 310 308 306 306 306 306 306 307 306 307 308 307 307 307 305 301 296 293 295 299 302 302 301 301 301 298 296 295 293 291 290 290 290 290 290 290 290 291 293 294 294 294
315 316 316 316 316 316 316 316 317 317 317 317 317 317 318 319 319 321 321 320 321 322 323 323 323 321 321 321 321 320 319 318 317 316 315 315 315 315 315 314 313 313 312 312 312 311 309 307 306 305 306 306 306 306 306 306 306 306 304 300 296 293 295 300 302 301 300 300 298 295 295 294 293 291 290 290 290 290 290 290 290 291 293 294 294
315 316 316 316 316 316 316 316 316 317 317 317 317 317 318 317 318 320 320 320 320 321 321 322 322 322 321 321 320 319 319 318 317 316 315 315 314 314 314 314 313 313 313 313 312 312 312 309 307 306 305 304 305 305 305 306 305 305 304 303 299 295 293 297 300 301 300 299 298 296 295 295 294 292 292 291 291 290 290 290 290 290 292 293 294
Wind_Speed
10 14 14 14 14 15 15 12 13 16 16 15 14 12 10 9 10 9 7 6 6 7 6 6 8 8 7 6 6 6 3 2 4 4 4 4 3 3 4 5 5 5 6 4 4 3 2 3 3 3 4 4 4 4 3 3 3 2 2 2 3 3 3 4 4 3 2 2 3 3 5 10 16 22 22 17 12 6 6 7 6 5 3 3 4
9 11 13 13 13 14 14 13 14 16 16 15 13 11 9 9 11 9 6 5 6 6 5 5 7 7 6 6 6 5 4 2 4 3 2 2 3 3 5 6 6 6 7 6 5 5 4 3 3 3 3 3 3 3 3 3 3 2 1 2 3 3 3 5 4 3 3 2 1 3 5 7 11 21 27 22 17 13 11 11 9 7 8 7 5
8 9 12 14 15 15 14 14 15 15 15 14 12 12 11 10 11 10 7 7 6 5 4 4 6 6 7 7 7 6 4 2 1 3 2 2 3 4 5 6 6 6 6 6 6 5 5 4 4 3 2 2 1 1 2 2 3 2 1 2 3 3 4 4 4 2 2 1 1 1 2 3 4 13 22 23 20 19 18 17 13 13 14 12 9
8 8 9 13 15 16 15 16 16 16 15 15 13 13 14 13 12 10 9 7 6 5 5 5 6 6 8 8 7 6 4 3 3 5 3 1 3 5 5 5 5 6 6 6 6 6 5 4 4 4 3 3 2 1 1 1 2 1 1 1 1 3 3 4 5 3 3 2 1 1 1 2 1 4 12 18 19 20 18 18 16 15 15 13 11
10 9 9 11 14 15 15 16 17 17 17 17 15 15 15 14 12 10 9 6 5 5 6 6 6 7 7 7 7 7 6 6 7 7 5 3 4 5 5 5 4 5 5 6 6 6 6 5 5 5 5 4 4 3 3 2 2 0 1 2 2 1 2 4 5 4 3 3 3 2 1 1 2 2 6 11 15 18 16 17 17 16 15 14 13
9 10 10 11 14 16 15 15 16 18 18 18 16 15 14 13 11 10 9 6 4 5 6 5 5 5 6 6 6 6 5 6 7 7 5 4 4 5 5 5 4 5 5 5 6 6 6 6 6 5 5 4 4 4 4 3 3 1 1 1 1 1 2 4 6 6 5 4 3 2 1 2 3 4 4 5 10 15 15 16 17 16 16 15 14
7 9 10 12 15 17 17 15 17 19 18 17 16 14 13 12 11 10 9 6 4 5 6 5 3 3 5 6 6 5 5 5 5 5 3 3 4 5 5 4 4 4 4 5 5 5 6 6 6 5 4 4 4 4 4 4 4 3 3 2 2 3 3 5 7 7 6 6 5 4 4 5 5 3 3 4 5 8 13 17 16 15 16 15 14
8 8 9 13 16 18 19 18 18 20 19 17 16 14 13 12 11 10 9 7 5 6 7 4 3 4 4 6 7 6 5 5 5 4 4 4 5 5 5 4 3 3 3 4 4 4 5 6 6 5 4 5 5 5 5 5 4 4 5 5 5 5 4 5 7 7 7 8 9 10 9 7 6 4 4 6 4 3 7 12 15 17 17 16 14
9 9 10 14 18 20 21 20 20 21 22 20 17 15 13 12 12 11 10 8 6 7 7 4 5 6 6 7 8 4 4 8 7 5 6 6 6 7 6 4 3 2 3 5 5 5 5 6 6 5 6 6 6 7 7 7 7 7 7 7 7 7 7 7 7 7 7 9 10 12 11 9 8 7 7 8 6 4 3 4 9 14 14 15 16
7 8 11 15 19 21 21 20 19 21 22 21 18 15 14 14 14 13 11 9 8 8 7 6 6 7 6 7 7 4 6 11 8 8 9 8 8 9 8 5 3 3 4 6 7 5 5 6 6 6 8 8 9 9 10 10 10 10 9 9 9 9 9 9 9 9 9 8 9 10 11 9 8 6 7 8 7 6 5 4 7 9 9 12 16
6 6 8 12 16 18 19 19 18 18 20 21 19 17 16 16 14 13 12 10 9 8 7 6 7 7 7 7 7 6 8 11 10 10 11 10 9 10 8 5 3 3 4 5 6 4 4 5 6 7 8 9 10 10 10 10 11 11 10 10 10 10 11 11 11 11 11 11 10 10 10 8 7 6 6 7 7 6 6 5 7 11 11 11 14
6 6 7 9 11 14 16 19 19 17 18 21 21 19 18 17 15 14 13 11 10 9 7 7 6 7 8 7 7 6 6 9 11 12 11 11 11 10 9 6 4 4 4 5 5 4 3 4 4 4 6 8 9 8 8 8 8 9 9 9 10 10 10 10 11 11 11 12 12 11 10 9 9 9 8 9 9 11 11 7 7 11 10 9 13
7 6 6 7 10 13 16 18 19 17 18 22 22 21 20 19 16 15 14 12 11 9 8 8 7 7 9 8 7 5 4 8 12 11 11 11 11 11 9 6 5 5 5 5 5 3 3 3 3 4 5 7 7 6 6 7 7 7 8 8 9 9 9 9 9 9 10 11 10 10 10 9 9 8 9 10 10 13 16 10 8 11 9 7 10
7 7 7 7 10 14 16 18 19 18 19 23 24 23 21 20 17 17 15 13 11 10 9 10 8 8 9 9 9 6 5 9 11 10 11 11 11 10 8 5 4 5 5 4 3 3 2 2 4 5 6 7 6 5 6 6 5 6 7 8 9 8 7 8 8 9 9 9 9 9 10 10 10 8 8 8 8 11 16 14 11 10 9 8 7
6 7 7 9 13 17 17 19 19 18 20 24 25 24 23 21 19 18 17 15 13 12 12 12 10 9 9 10 10 8 7 10 10 10 10 11 10 8 6 5 3 5 6 3 2 3 2 3 5 6 6 7 6 5 6 5 4 6 7 8 8 8 6 6 8 9 10 9 9 9 10 10 10 9 7 6 6 9 14 19 18 10 6 7 6
6 7 7 10 15 18 18 20 21 19 21 24 26 26 24 22 21 21 20 18 16 14 14 14 13 12 11 11 11 9 9 11 11 10 10 10 10 8 7 5 2 6 7 2 2 4 3 4 5 5 7 7 5 5 7 6 5 7 7 6 7 6 6 6 7 8 9 10 11 11 11 11 10 9 8 6 5 7 10 18 21 15 9 5 3
8 8 8 10 15 18 20 22 22 21 22 26 28 28 26 25 23 23 22 20 18 17 16 15 15 14 13 13 12 10 11 13 10 10 10 10 10 9 7 4 1 5 6 3 3 5 4 4 5 7 8 7 5 6 7 6 5 6 7 6 6 6 7 8 8 7 8 9 11 11 11 10 9 9 10 8 7 9 10 13 18 19 17 9 3
8 8 8 11 15 18 20 22 23 24 25 27 29 29 28 26 25 25 24 23 21 19 17 17 17 16 14 14 13 11 11 12 9 10 11 11 12 9 7 4 0 2 4 3 4 6 5 5 7 8 7 5 6 6 6 5 5 6 8 8 8 8 10 11 10 9 9 9 11 11 10 10 10 10 10 10 10 10 10 10 13 19 19 14 9
7 7 7 10 15 19 21 23 24 25 26 27 29 29 28 27 26 25 25 24 22 20 19 18 18 16 14 14 14 13 12 11 10 11 12 12 12 9 7 4 1 1 3 4 6 7 7 8 8 8 7 6 7 6 5 5 6 8 9 10 9 9 11 13 12 11 10 10 11 11 11 11 11 11 10 10 10 9 8 8 9 15 17 17 19
7 8 8 10 16 22 24 26 26 27 27 28 29 29 30 29 27 26 25 24 23 21 20 20 19 17 15 13 14 13 13 12 11 13 14 13 11 9 8 5 2 2 5 6 7 7 8 9 8 8 8 8 8 6 5 5 7 9 9 10 10 9 11 13 12 11 10 11 12 12 12 13 13 12 12 10 9 7 6 6 8 14 17 19 23
8 9 9 11 17 22 25 27 27 26 26 27 29 30 31 30 28 27 26 25 24 23 22 22 20 17 16 15 15 13 14 14 12 13 15 13 11 9 8 6 3 3 5 7 7 7 8 9 8 8 8 8 7 7 7 7 9 9 10 10 10 9 11 12 12 11 11 11 12 13 13 13 13 12 12 12 11 8 7 8 11 17 20 22 24
10 10 9 11 16 20 23 25 24 24 25 27 29 30 30 31 30 28 27 27 26 25 24 23 21 18 17 17 16 14 15 15 13 14 14 13 11 9 7 6 4 3 6 7 7 7 7 8 9 9 9 8 8 8 8 8 8 9 9 10 9 9 10 10 11 11 11 11 11 12 14 13 13 14 14 13 13 12 11 14 17 20 22 23 24
10 9 9 12 17 20 22 23 24 26 27 28 29 30 31 31 31 29 29 29 28 27 25 23 22 19 17 17 17 15 16 16 15 14 13 11 11 8 6 6 5 6 7 6 7 7 7 7 9 9 8 7 8 9 9 9 8 8 8 8 7 8 8 8 9 10 10 11 11 12 13 13 14 15 15 14 15 15 16 18 20 21 22 22 22
9 8 9 13 17 18 19 21 24 26 27 28 29 30 30 31 31 31 30 30 29 27 26 24 22 20 17 17 18 16 16 17 16 15 12 11 10 8 6 5 5 7 8 6 7 8 6 7 9 9 8 7 7 9 9 9 8 8 7 6 4 4 4 6 8 9 9 10 10 11 11 12 13 15 15 15 15 17 18 19 20 20 20 20 20
8 8 9 11 12 14 18 21 24 26 26 27 28 29 29 30 31 31 31 31 30 28 27 25 23 21 19 19 18 16 17 17 16 14 12 11 10 8 8 6 5 8 8 7 8 7 6 9 11 10 8 8 7 8 8 9 9 8 7 5 3 3 5 7 8 9 9 9 10 10 10 10 12 14 15 15 16 17 18 19 20 20 20 20 20
8 8 8 10 11 14 18 22 24 25 25 25 27 28 27 28 30 32 32 31 30 29 28 27 25 22 21 21 19 18 18 18 16 14 12 11 11 10 9 7 7 8 9 9 7 6 8 13 12 9 8 9 9 8 8 8 9 8 6 6 6 9 11 11 11 11 10 10 10 10 10 9 10 13 14 15 16 17 18 19 20 20 20 21 21
5 4 5 8 9 12 18 21 22 22 23 25 27 27 27 27 29 31 32 32 32 31 29 28 26 24 23 22 21 19 19 18 16 15 12 11 11 10 9 8 8 9 10 9 7 7 12 14 11 9 8 9 10 10 9 8 9 7 6 8 11 15 16 17 16 15 13 12 11 11 10 9 10 12 13 14 16 17 19 20 21 21 20 20 21
4 4 5 6 7 10 14 17 18 19 22 25 26 27 28 29 30 32 33 33 33 31 30 29 27 26 25 24 22 21 20 18 17 16 14 13 12 11 10 9 9 10 10 8 8 11 14 13 11 10 9 10 11 11 10 9 9 8 7 11 15 17 19 20 20 19 18 16 15 13 12 12 12 12 13 14 15 17 19 21 22 21 20 20 20
3 5 7 7 7 8 9 13 17 21 23 23 24 26 28 29 31 33 33 33 33 32 31 30 29 28 27 25 23 21 20 19 18 16 15 14 13 12 12 11 10 11 11 9 10 13 13 12 11 10 10 10 11 11 10 10 10 9 9 13 16 17 19 21 22 22 21 20 19 18 16 14 14 13 13 14 14 15 17 19 20 19 18 19 18
2 4 6 5 7 8 9 13 17 20 22 22 24 26 28 30 31 31 32 32 33 33 32 31 30 30 28 26 23 22 21 20 19 18 16 14 14 14 14 13 12 11 12 12 13 13 11 11 10 9 10 11 11 11 11 11 10 10 11 14 16 17 19 20 21 22 21 21 20 19 18 16 15 14 14 13 14 14 15 15 15 14 14 14 15
1 2 5 3 4 8 9 11 15 19 22 24 25 27 29 30 30 30 30 31 32 33 32 32 32 31 30 27 25 23 22 22 21 19 17 16 15 15 15 15 14 12 13 15 15 13 11 10 9 9 9 10 12 13 11 11 12 10 11 14 16 17 18 18 19 20 19 19 18 18 17 16 15 15 15 14 14 13 13 13 13 11 10 9 10
2 3 5 4 2 6 9 12 16 20 22 24 26 26 27 29 30 30 29 29 31 32 32 33 33 32 31 29 26 25 24 24 23 21 20 18 17 17 17 16 15 14 14 16 16 14 13 12 10 9 9 12 14 14 12 12 13 12 11 13 14 14 14 14 15 17 17 16 15 16 16 16 15 15 16 16 15 15 14 13 13 13 12 12 10
1 3 4 3 1 6 13 18 19 20 24 27 28 28 30 33 33 31 28 28 30 31 31 31 31 31 31 30 28 26 26 25 25 23 21 20 19 20 19 17 17 16 14 14 16 16 15 14 11 9 10 14 16 15 13 13 13 13 12 12 12 11 10 10 12 14 14 13 13 13 14 15 15 14 15 16 16 17 16 16 16 17 17 16 16
1 0 3 4 3 0 10 18 21 23 25 27 28 30 32 33 31 29 27 28 30 30 30 30 30 31 31 30 29 29 28 27 26 24 23 22 21 21 20 17 18 19 16 14 16 17 16 14 12 8 10 16 17 16 15 14 14 14 13 13 12 11 10 9 10 13 13 11 11 11 12 14 14 14 14 15 17 18 18 19 19 20 21 20 19
1 2 3 5 3 4 1 10 17 23 24 23 25 29 30 27 27 27 26 26 28 29 29 29 30 30 31 31 31 30 29 28 27 25 25 23 22 22 21 18 18 20 19 16 16 17 16 14 12 9 11 17 18 16 16 16 14 14 14 14 14 13 12 11 11 12 12 10 9 9 10 12 13 13 13 13 15 16 18 20 22 22 23 22 21
4 4 3 3 2 3 2 2 8 16 21 23 25 28 27 25 24 26 26 25 26 27 28 28 30 30 31 32 33 32 31 30 29 27 27 25 24 24 22 20 19 21 21 19 17 17 17 15 12 10 13 18 19 17 17 16 15 14 14 15 16 15 14 12 12 12 11 10 9 7 8 11 11 11 11 10 10 12 15 18 20 20 20 20 20
5 5 3 1 2 2 0 1 4 9 16 22 25 26 26 24 23 24 25 24 25 27 28 29 31 32 33 33 34 33 32 31 30 30 29 27 27 26 24 22 21 22 23 21 19 19 18 17 14 12 14 18 21 19 17 17 17 16 15 16 16 16 15 13 13 12 11 11 9 7 8 11 10 9 9 8 8 9 12 15 17 17 16 16 16
4 4 5 4 4 4 2 2 4 6 9 17 22 24 24 24 24 25 24 24 26 28 30 32 33 34 34 34 34 34 33 32 32 32 31 29 28 28 27 24 24 24 24 23 21 20 19 18 15 13 14 17 21 21 19 19 19 18 17 16 16 15 14 13 13 13 12 10 8 7 10 12 11 9 8 8 8 7 9 11 13 14 13 12 11
8 5 6 7 7 7 5 3 4 5 6 10 18 23 24 24 25 25 24 24 28 31 32 34 35 34 33 34 35 34 34 33 33 33 32 32 31 30 29 27 26 25 25 24 23 21 21 20 17 15 13 16 20 22 22 20 20 19 17 16 16 15 15 14 13 13 12 10 7 8 11 13 11 9 8 8 8 7 6 8 10 12 13 11 9
11 10 7 7 7 8 9 8 7 7 6 8 14 19 22 24 24 24 25 26 29 30 32 32 32 31 32 33 35 36 36 35 35 35 34 33 32 32 31 29 28 27 25 24 24 23 22 21 19 17 15 15 18 23 24 22 21 20 18 17 17 16 16 15 14 13 12 11 9 10 12 13 12 10 8 8 8 7 8 7 7 10 12 10 8
12 13 12 10 9 8 9 12 12 9 8 8 12 16 19 22 22 23 26 27 26 27 29 31 29 28 29 31 32 35 37 37 36 35 35 34 34 33 33 31 30 28 26 26 26 24 23 23 21 20 17 15 17 21 24 24 22 21 19 19 19 18 16 15 15 13 13 13 12 11 12 13 14 12 10 9 8 7 7 7 7 8 9 8 6
12 14 15 14 15 15 13 13 13 10 11 11 13 16 18 19 21 24 27 25 23 24 26 28 27 26 28 29 30 32 34 35 36 35 35 35 34 34 34 33 31 30 28 27 27 26 25 24 23 22 20 17 16 19 23 26 25 23 21 20 20 20 17 15 14 14 13 13 14 12 12 13 14 13 12 10 9 8 7 8 9 8 6 5 5
12 15 17 17 17 19 18 17 15 11 14 15 15 16 18 20 21 24 26 24 23 22 23 26 27 27 30 34 36 37 35 34 35 36 36 36 35 35 34 33 32 31 30 29 28 27 26 25 24 24 23 21 18 18 21 25 26 25 23 20 20 20 20 18 16 14 12 12 14 14 13 13 13 13 12 10 9 9 8 9 10 8 7 7 7
15 16 18 16 16 18 20 21 19 15 13 18 19 18 18 20 21 22 23 25 25 22 23 27 30 31 32 36 38 37 35 34 35 36 36 36 36 36 35 34 33 32 31 30 29 29 28 27 26 26 26 24 21 19 20 23 26 27 25 22 19 19 21 21 19 15 12 11 12 13 13 13 14 13 11 9 8 8 8 9 10 10 9 9 7
17 16 16 15 15 16 17 20 22 21 16 17 21 22 20 20 20 19 20 23 25 24 25 28 32 34 34 36 35 33 32 34 36 36 37 37 36 36 35 34 34 33 32 31 31 30 30 29 28 28 28 27 25 22 21 22 24 27 27 24 20 18 19 21 21 18 16 13 12 12 13 14 14 13 12 10 9 8 8 9 10 12 11 9 8
17 18 18 17 16 14 15 17 21 23 21 18 20 24 24 22 21 19 19 21 24 27 28 28 30 33 35 36 35 34 34 35 36 37 39 39 39 38 37 35 35 35 34 33 32 32 31 30 29 29 30 29 27 25 23 22 24 27 29 27 23 19 19 20 19 18 17 16 15 14 14 15 15 14 13 11 10 9 9 9 11 13 10 8 8
17 20 21 19 15 13 14 16 18 21 22 20 18 22 27 27 25 21 21 22 23 26 29 30 31 33 34 36 37 37 36 36 36 37 38 38 39 39 38 36 36 36 34 33 32 32 31 31 31 31 30 30 29 28 27 25 25 27 29 29 27 23 21 20 19 17 17 18 18 18 16 16 16 15 14 13 11 10 10 11 13 13 11 8 8
17 18 19 18 15 13 14 15 16 19 21 21 19 18 22 28 30 27 23 22 23 24 27 30 33 33 33 35 38 39 38 36 37 38 38 38 38 38 39 39 40 40 38 36 34 34 34 35 34 32 30 30 30 31 31 30 29 29 30 31 31 28 26 23 21 19 18 18 20 20 19 18 17 17 16 15 13 12 12 12 14 15 12 10 9
16 15 15 15 15 15 15 15 17 18 19 20 21 20 19 21 27 29 26 22 22 23 25 28 32 34 34 35 38 39 38 37 38 39 40 42 43 43 43 43 44 44 43 41 39 38 39 39 37 35 33 32 33 35 36 34 32 30 31 32 33 33 31 28 25 22 20 20 22 24 23 21 20 20 18 17 16 15 14 14 16 17 15 12 11
14 14 14 14 15 15 15 16 18 19 20 21 22 23 22 22 22 24 26 26 25 24 26 29 31 33 34 36 37 37 37 37 38 38 39 40 42 44 46 45 45 46 45 43 40 38 38 38 38 38 38 37 37 37 37 35 32 31 30 31 32 33 33 30 27 23 22 23 25 27 27 25 24 23 22 21 19 18 17 16 17 18 18 15 13
13 12 12 13 15 16 16 17 19 21 21 21 22 24 24 22 21 19 21 25 24 22 22 25 29 33 36 37 37 36 36 36 37 38 39 37 36 38 42 44 44 44 44 44 41 38 37 36 37 38 39 39 38 36 34 32 32 31 30 30 30 31 32 31 29 26 24 25 27 29 29 27 26 26 24 23 21 20 20 18 17 19 20 18 16
Wind_Direction
179 176 173 176 178 176 171 161 159 164 166 168 169 172 181 190 189 178 171 182 196 199 206 214 211 209 208 194 172 162 158 80 71 72 77 83 66 26 8 16 21 17 19 28 34 24 22 39 53 67 67 69 78 72 65 76 83 86 76 56 35 26 35 27 25 39 35 4 350 15 75 79 64 54 51 54 57 46 23 16 12 10 4 2 2
165 175 179 179 178 178 178 171 165 164 163 168 172 175 183 190 188 181 176 184 186 187 189 187 188 189 190 187 164 156 174 120 91 101 102 84 45 15 24 42 43 37 39 44 49 53 63 63 51 56 60 63 78 79 74 85 95 112 111 83 70 55 47 37 37 56 51 33 348 2 53 86 73 57 55 59 65 65 64 67 70 77 77 71 72
164 177 183 184 182 181 183 180 180 178 172 171 176 180 184 189 192 190 191 193 183 173 172 170 168 158 150 152 144 142 170 189 143 144 143 83 44 42 53 55 44 40 47 53 59 66 68 63 56 56 59 44 53 90 88 85 80 85 93 97 98 83 73 56 46 69 100 106 95 14 24 79 59 48 55 62 65 68 75 82 84 81 80 81 89
166 177 182 187 188 186 185 185 188 185 178 178 183 186 189 193 196 193 192 196 188 162 129 124 143 151 145 148 149 139 137 152 147 138 142 102 65 71 71 63 50 42 48 57 60 65 66 62 59 59 64 58 41 61 76 77 78 79 66 54 60 77 87 69 52 82 139 176 126 84 110 88 20 27 58 64 69 73 77 84 89 87 88 91 95
165 174 180 184 189 193 189 187 190 187 180 183 190 192 193 195 196 194 194 198 198 176 149 132 137 147 147 149 158 152 133 131 135 133 133 113 87 88 83 78 74 56 53 62 62 61 61 55 55 56 61 61 50 56 67 67 63 26 2 328 320 55 115 98 77 87 117 170 175 139 94 93 216 181 91 67 70 79 84 91 94 92 92 93 93
163 168 174 178 184 194 194 190 192 192 188 189 193 195 197 200 197 195 200 203 198 186 175 159 148 156 165 166 168 170 160 145 142 139 133 116 98 99 98 92 92 73 61 69 67 59 55 51 54 58 62 63 58 63 70 70 65 62 48 336 316 104 178 149 114 105 109 125 148 143 97 142 185 166 119 83 72 79 90 98 98 97 94 89 86
154 161 172 178 181 188 193 193 194 197 198 195 194 198 203 206 202 202 206 208 207 188 175 163 161 187 195 206 209 189 177 167 152 140 124 121 116 113 112 100 94 83 68 69 70 60 51 45 46 52 60 65 70 76 76 76 78 82 90 98 116 137 181 165 135 129 127 118 125 134 121 131 156 159 133 135 99 80 85 90 95 103 101 93 87
157 162 173 180 183 186 190 192 196 199 202 199 198 203 208 208 210 213 210 214 218 182 169 175 194 195 184 188 191 182 182 182 170 153 137 139 135 128 129 120 101 90 73 64 71 68 50 42 43 50 60 63 68 76 79 82 84 88 95 102 113 123 133 134 131 137 134 120 122 130 129 132 150 163 144 133 132 116 95 88 92 101 102 100 97
166 170 176 181 187 190 190 191 197 200 200 200 201 205 210 211 215 218 211 215 219 187 182 202 199 191 181 172 172 170 183 179 174 173 163 156 147 140 142 138 115 90 72 69 80 77 54 44 47 64 76 76 78 83 84 84 86 89 94 99 103 106 107 106 108 115 124 126 130 131 127 123 119 118 117 114 115 128 142 118 105 102 96 95 100
174 177 179 183 189 192 191 192 197 199 198 199 200 203 207 211 216 216 210 211 219 207 204 210 199 196 195 188 187 170 163 171 174 174 171 165 153 146 143 138 115 84 79 83 87 79 60 54 61 86 95 94 95 93 90 88 89 92 94 96 98 99 101 101 99 98 100 110 125 131 126 120 112 101 97 103 106 109 119 135 128 116 94 88 97
176 179 182 187 192 194 193 196 199 198 198 198 198 201 204 210 215 213 209 211 220 216 207 206 201 203 201 192 194 182 171 179 175 164 165 160 149 143 142 138 116 94 93 89 85 78 70 64 70 94 105 105 104 99 95 93 92 95 98 98 99 99 100 100 101 101 98 95 97 104 108 109 109 105 104 112 119 121 117 116 120 114 100 91 96
176 177 181 183 189 195 197 202 204 202 202 200 199 201 204 208 213 211 208 212 218 216 210 212 207 207 206 191 187 191 187 183 171 158 158 158 152 146 145 142 135 134 118 87 81 81 76 72 74 92 107 109 107 102 99 98 96 98 99 98 98 98 101 101 101 101 101 98 95 94 96 100 104 105 109 114 123 135 131 127 130 119 105 99 99
181 181 181 180 187 195 199 204 206 206 206 203 200 202 203 207 210 210 209 210 217 217 211 216 218 212 209 199 193 201 192 176 169 161 159 162 162 158 151 141 139 145 129 92 86 87 72 73 83 95 113 116 110 104 101 102 103 103 100 101 101 99 100 96 93 100 104 101 101 103 100 98 101 105 111 112 116 131 132 130 135 129 120 116 102
183 183 184 187 191 196 201 204 205 207 208 204 201 202 203 206 209 210 210 211 217 218 209 214 221 214 207 204 202 205 190 176 172 167 164 164 164 160 151 143 147 151 138 112 102 107 85 93 110 110 119 120 113 109 109 106 103 102 104 105 102 100 104 97 91 100 107 103 103 108 103 95 94 96 102 109 113 126 133 133 130 123 115 108 94
186 187 189 194 195 197 202 205 206 209 207 203 201 202 203 206 209 210 211 212 215 216 212 215 219 211 204 203 203 206 194 181 178 176 173 170 169 166 157 149 164 176 162 133 125 145 127 133 134 123 122 121 111 112 124 120 97 100 112 112 104 102 106 104 99 101 102 99 101 108 108 97 90 88 86 96 113 124 138 141 136 128 110 100 89
190 193 194 198 198 198 202 204 207 210 208 203 201 202 204 207 210 211 211 212 213 213 212 215 215 206 200 200 204 208 195 182 179 178 177 175 174 174 163 151 178 196 184 162 147 163 151 150 151 135 128 123 107 106 126 128 100 102 114 110 106 111 112 106 101 102 98 97 103 108 108 100 91 89 85 87 119 126 141 150 146 139 129 122 108
195 196 196 197 198 201 202 203 205 207 207 205 204 206 207 210 211 210 210 212 212 212 211 211 211 206 203 201 203 202 191 187 185 180 178 175 172 172 162 149 190 205 191 172 155 160 154 155 146 132 130 127 117 111 120 125 108 102 105 99 109 122 117 108 101 101 100 101 108 107 104 102 97 94 90 92 116 125 131 152 157 149 140 136 130
196 198 198 199 201 202 204 205 206 208 209 207 207 209 210 212 212 209 209 210 209 210 210 210 210 209 209 207 203 196 190 193 195 191 188 179 169 164 157 149 108 205 191 183 166 153 143 148 137 128 130 131 132 124 116 123 120 113 106 101 113 123 117 112 108 107 109 111 113 108 102 103 103 103 98 99 112 120 124 140 160 161 153 143 135
197 199 199 201 203 204 204 206 208 209 211 211 210 210 210 212 213 211 210 210 209 210 210 211 212 212 212 211 205 199 194 195 196 193 190 181 170 163 160 161 131 160 159 155 167 154 132 136 138 133 133 132 132 126 118 128 128 124 119 112 118 123 117 117 115 113 115 119 118 110 103 104 107 108 105 105 109 115 126 133 154 170 166 148 133
201 200 202 204 204 206 206 206 208 209 211 212 210 210 210 211 211 211 212 212 210 210 211 211 211 211 211 207 202 199 196 198 199 194 187 180 173 167 166 168 148 156 150 139 155 158 142 142 145 142 138 131 125 117 121 139 135 129 128 124 127 126 118 117 120 120 118 120 119 112 105 107 112 110 105 105 107 116 137 141 150 160 156 143 130
205 204 205 207 207 208 209 209 210 210 211 211 209 208 209 210 210 210 211 210 209 210 212 212 210 210 209 202 200 200 198 199 199 191 184 179 174 167 166 169 150 160 171 157 154 156 154 158 156 148 141 130 121 117 124 140 135 128 127 127 132 134 125 120 123 123 120 119 117 112 106 108 114 113 106 103 101 111 141 146 147 148 141 136 129
205 208 206 208 209 209 210 210 209 209 209 208 207 206 206 207 208 209 210 210 210 209 211 212 208 208 207 203 202 200 196 199 197 188 184 180 177 172 166 166 160 161 166 166 168 165 162 163 155 147 140 131 123 122 128 139 138 130 128 128 132 135 130 126 126 123 120 121 120 113 107 106 112 114 108 102 96 103 129 137 138 141 135 131 130
204 205 205 209 210 209 208 207 206 207 207 206 205 204 204 205 206 207 208 210 211 211 211 211 207 207 208 205 203 200 198 202 200 194 191 185 183 185 173 160 168 181 171 163 175 176 169 164 156 146 139 131 127 128 133 140 141 137 132 127 129 132 133 135 131 125 123 126 126 118 108 105 112 114 109 104 98 99 116 127 129 134 134 130 133
204 202 207 209 209 206 203 203 204 205 206 204 202 203 203 204 203 205 207 210 211 211 211 210 207 208 209 205 204 207 206 204 201 198 198 193 191 197 189 172 179 191 185 175 182 187 186 174 161 148 136 127 129 134 138 139 138 139 135 125 120 130 146 155 149 137 131 131 131 123 112 108 112 114 110 109 106 103 110 120 124 130 132 129 130
203 202 210 205 201 200 199 201 203 203 203 202 201 202 202 202 202 203 206 208 210 210 210 209 208 207 208 207 207 209 206 203 201 200 199 197 197 200 197 193 202 200 185 173 184 203 202 176 161 150 138 127 130 139 141 139 136 134 126 110 102 115 128 143 149 147 141 137 135 127 118 115 114 112 111 112 112 111 113 118 121 125 128 128 127
209 205 207 202 198 200 201 202 202 200 200 200 200 202 202 201 202 204 206 207 208 210 209 207 207 207 207 208 208 206 205 205 206 203 200 197 194 196 196 195 209 206 186 179 196 207 185 169 158 152 145 134 135 142 141 139 136 130 113 97 106 113 111 116 125 133 137 137 136 130 123 121 116 110 110 114 117 118 119 120 122 123 125 126 123
243 231 229 217 207 206 204 203 202 197 196 199 200 201 202 202 202 204 206 207 207 208 207 206 206 207 208 209 208 208 209 212 213 210 208 203 195 199 203 198 201 198 187 194 212 193 173 167 161 156 154 145 141 144 147 145 138 125 107 110 118 116 110 109 111 115 121 125 128 129 125 122 117 110 109 115 120 122 123 123 124 127 128 125 121
289 284 269 249 232 224 210 200 195 193 195 199 201 201 202 203 204 205 206 206 206 205 204 204 205 206 209 211 211 212 215 218 219 217 217 213 207 209 211 207 206 198 190 197 199 181 171 169 167 162 161 156 149 149 156 156 144 125 114 125 127 120 113 109 106 105 106 107 110 113 114 114 114 111 110 113 119 124 126 125 126 130 131 127 123
304 283 266 244 236 239 216 191 188 191 195 198 199 200 202 205 207 207 206 205 203 203 202 203 204 206 210 213 213 213 216 221 220 218 219 217 213 211 208 208 205 196 193 193 186 180 175 171 169 166 167 168 162 159 165 165 152 132 124 132 132 124 118 113 108 103 100 98 97 98 100 104 108 109 110 111 114 121 124 124 127 131 132 129 126
216 276 288 254 218 220 214 195 189 193 196 196 196 198 202 207 209 208 207 205 202 202 202 202 204 207 209 212 214 213 215 219 220 219 219 217 215 212 205 201 194 191 200 199 187 186 187 184 180 176 175 176 172 169 172 173 164 143 132 138 136 128 123 119 113 107 101 95 92 90 91 97 103 107 109 110 112 114 116 117 120 124 126 129 129
137 339 347 347 182 193 208 203 197 197 198 199 199 199 203 209 210 210 209 206 203 202 202 202 204 207 208 209 212 213 214 218 220 220 219 218 218 213 203 198 195 196 206 205 197 197 199 198 197 193 190 185 177 171 172 172 167 153 141 143 141 133 127 124 119 112 106 100 94 90 89 91 95 99 102 105 107 107 109 110 109 108 108 111 122
50 35 19 17 158 185 200 206 208 204 200 203 204 201 204 210 212 212 210 207 204 203 202 203 204 205 206 207 210 212 213 216 219 219 219 219 218 211 205 205 202 199 203 207 208 208 203 200 204 205 202 193 181 174 174 174 170 162 151 148 147 140 134 131 124 118 114 110 104 100 96 91 91 94 96 99 100 100 102 103 102 100 98 96 98
119 41 15 352 255 203 204 209 213 208 205 207 206 203 208 212 213 212 209 206 205 204 203 203 203 203 204 206 208 211 212 215 217 218 218 218 217 212 210 212 207 202 206 212 210 206 201 201 205 211 204 191 181 176 175 175 173 168 162 157 155 151 145 141 136 131 127 122 116 112 107 100 97 98 97 97 97 96 96 97 97 95 93 93 94
163 34 320 314 340 195 210 216 217 215 213 212 208 209 214 216 214 210 207 206 205 204 204 203 202 203 204 205 207 209 211 213 216 216 216 217 217 215 214 216 209 205 210 215 206 201 201 201 204 213 200 186 181 177 175 175 175 174 173 171 166 159 152 149 147 146 141 134 129 126 120 113 107 104 101 98 97 97 96 95 94 93 90 90 91
270 219 260 285 351 49 166 223 224 222 220 217 215 215 217 218 216 211 208 208 206 204 204 204 203 203 203 204 206 208 209 211 212 214 215 217 218 216 215 216 212 208 213 217 209 203 203 201 203 214 200 186 182 178 177 180 182 180 180 180 175 167 158 153 153 154 153 147 145 140 133 128 121 114 109 101 96 96 96 95 93 92 92 91 90
278 235 228 265 321 45 66 243 241 232 226 225 225 222 220 221 220 214 211 211 208 205 204 204 204 204 203 204 206 206 207 208 209 211 214 217 219 217 217 218 214 210 214 219 215 209 207 204 204 212 203 191 185 181 179 183 183 179 177 177 177 174 168 163 162 165 167 166 163 157 149 144 137 129 122 110 99 97 98 98 95 94 94 94 94
289 260 247 296 314 298 285 282 270 249 235 233 231 226 222 222 220 215 213 212 208 206 206 206 206 206 204 204 205 206 206 206 207 209 212 217 220 219 219 220 215 210 212 218 217 212 210 209 208 210 206 196 189 184 182 182 180 177 173 171 172 173 170 169 171 172 175 175 173 174 169 161 152 144 138 130 119 107 103 102 102 102 102 100 99
341 285 269 281 284 274 258 237 255 260 247 238 232 224 219 218 216 213 212 211 209 208 208 208 209 208 206 205 205 206 206 206 207 209 212 217 220 221 221 220 217 213 213 217 219 215 211 213 215 213 209 201 194 188 185 184 182 181 182 181 177 174 171 170 172 172 173 175 175 179 179 174 167 156 149 150 147 130 113 109 110 114 115 111 108
14 341 291 289 289 276 261 236 225 236 245 236 228 221 215 214 214 211 208 209 210 210 211 211 211 210 207 205 205 206 207 207 209 211 213 216 220 221 221 220 219 217 216 217 219 218 214 214 215 215 211 206 199 192 188 188 187 187 192 194 190 187 182 179 180 180 179 182 185 181 179 180 178 165 153 156 162 162 146 125 120 125 125 118 113
1 353 329 309 300 279 265 260 245 230 232 232 223 216 212 214 214 209 207 211 212 211 212 212 212 210 208 206 206 207 209 210 211 212 213 216 220 220 219 218 218 218 218 217 218 220 219 216 213 213 212 210 205 198 193 191 192 192 195 197 195 193 189 187 190 194 192 191 190 185 184 186 185 175 162 156 159 166 163 149 136 133 128 121 114
347 343 335 327 323 312 290 284 272 243 225 227 220 212 212 216 215 211 212 214 213 211 212 211 210 210 208 207 209 211 212 212 213 214 214 215 218 219 218 217 216 215 216 215 215 219 222 219 214 213 213 213 211 205 199 195 194 195 196 196 197 197 196 195 197 202 205 203 197 191 189 192 191 187 181 174 166 163 160 157 156 144 129 122 119
331 329 329 325 323 321 314 308 298 260 228 220 215 213 215 215 214 218 220 217 212 212 212 209 207 206 203 206 214 218 217 214 213 213 213 213 216 218 217 216 214 213 213 213 214 217 221 221 217 214 214 215 213 211 207 202 199 198 199 200 201 203 205 204 201 202 208 208 204 200 196 196 198 197 197 198 195 188 176 169 172 171 159 147 133
316 315 317 318 318 313 305 307 311 284 243 225 215 214 214 211 217 228 228 219 213 213 211 208 207 206 204 208 217 221 219 216 214 212 212 213 214 215 215 214 213 211 211 211 212 214 218 219 217 215 215 215 214 213 212 208 205 204 203 204 205 206 208 209 207 205 205 205 205 206 204 202 202 202 205 208 207 203 196 184 183 187 180 163 143
307 307 310 314 321 317 306 303 308 302 264 236 227 224 216 214 225 237 229 217 214 211 207 207 209 210 210 211 214 217 217 216 215 213 211 211 211 211 211 211 211 210 209 209 210 211 214 216 217 216 215 213 213 214 214 213 211 208 207 207 207 207 209 211 212 211 207 202 202 206 209 207 204 202 204 206 202 197 191 186 185 180 170 163 155
303 303 304 308 314 318 315 310 309 306 287 252 237 233 226 225 237 242 229 217 213 208 205 207 209 212 214 212 212 214 217 217 216 213 210 208 208 207 207 207 207 207 208 209 209 209 212 214 216 217 216 213 212 212 212 212 213 212 211 210 209 208 209 212 214 214 212 208 202 201 204 206 204 203 202 201 200 195 185 180 180 173 166 168 171
304 301 301 302 305 310 315 319 318 312 299 275 249 238 236 240 246 244 233 223 214 207 206 208 211 214 214 210 211 215 217 218 216 214 212 209 207 206 205 204 204 205 208 209 208 208 211 213 215 218 218 215 211 211 212 212 211 213 215 214 212 210 209 210 212 211 211 212 209 202 200 201 203 205 205 204 202 198 191 184 181 176 173 175 176
306 305 304 300 297 302 308 314 322 322 314 300 275 251 245 246 248 245 237 228 217 211 212 214 215 216 212 208 209 214 217 217 215 213 211 209 208 207 205 203 202 203 205 208 208 208 209 212 215 217 217 215 213 211 211 212 211 212 215 217 216 213 210 209 207 204 204 208 209 205 201 201 203 204 205 207 206 202 199 193 187 184 183 178 172
312 318 319 309 297 300 308 310 316 325 327 321 309 286 265 255 250 245 239 229 220 216 218 220 219 217 213 209 210 212 213 213 212 211 209 208 207 206 205 206 207 207 205 205 206 207 210 213 215 215 213 213 213 213 214 215 214 212 212 215 216 215 214 212 209 204 200 201 203 203 201 200 204 205 205 207 208 206 204 199 194 191 189 185 180
320 328 334 327 316 314 318 319 321 326 330 329 325 318 306 285 266 253 243 237 230 222 218 220 218 214 212 211 210 211 211 209 208 209 209 210 211 210 209 211 214 214 213 212 211 210 214 216 216 214 212 209 211 217 221 222 220 217 213 213 215 215 215 216 214 210 205 198 196 198 199 200 203 206 208 209 208 207 207 204 200 197 195 194 192
337 337 339 342 340 335 333 332 332 333 332 330 328 326 324 320 302 271 249 245 245 233 219 215 212 210 209 209 207 209 210 209 207 207 208 211 215 216 216 216 217 217 219 220 220 222 223 221 218 218 219 219 222 227 228 225 223 223 221 219 218 218 217 216 215 213 209 202 197 197 199 202 203 205 208 210 209 209 208 206 205 203 201 201 200
342 342 342 345 346 343 339 337 336 337 334 332 331 329 326 327 323 297 261 251 255 251 236 221 211 207 208 206 205 206 208 207 207 207 207 209 212 216 218 220 221 220 220 222 225 229 230 227 224 224 226 228 230 232 232 228 226 225 225 223 223 222 220 218 216 212 207 204 202 201 202 205 206 208 210 212 212 212 211 209 208 207 205 204 205